Location: Avon Lake
(41.5219°N, 93.5010°W)
Time: 08:06:20
(UTC+00:00)

BlueWalker 3 - Pass Details

Date: 02 December 2022
Orbit: 499 x 517 km, 53.2° (Epoch: 07 February)

Event Time Altitude Azimuth Distance (km) Brightness Sun altitude
Rises 23:53:40 0° 298° (WNW) 2,630 6.3 -12.6°
Reaches altitude 10° 23:56:42 10° 323° (NW) 1,738 4.9 -13.2°
Maximum altitude 23:58:58 15° 359° (N) 1,460 4.1 -13.6°
Enters shadow 00:00:27 12° 24° (NNE) 1,580 4.1 -13.9°
